| time (UTC) | temp F | wind direction | speed MPH | gust MPH | rain 1hr in | rain 24hr in | rain mn in | humidity % | barometer mb |
| 20260510164527 | 69 | 203 | 3.0 | 5.0 | 0.00 | 0.00 | 0.00 | 25 | 1012.1 |
| 20260510163026 | 69 | 150 | 1.0 | 6.0 | 0.00 | 0.00 | 0.00 | 26 | 1012.1 |
| 20260510161523 | 68 | 159 | 0.0 | 7.0 | 0.00 | 0.00 | 0.00 | 29 | 1012.3 |
| 20260510160020 | 67 | 123 | 0.0 | 8.0 | 0.00 | 0.00 | 0.00 | 29 | 1012.2 |
| 20260510154517 | 65 | 156 | 3.0 | 7.0 | 0.00 | 0.00 | 0.00 | 29 | 1012.2 |
| 20260510153030 | 65 | 143 | 4.0 | 7.0 | 0.00 | 0.00 | 0.00 | 29 | 1012.2 |
| 20260510151512 | 65 | 150 | 0.0 | 4.0 | 0.00 | 0.00 | 0.00 | 29 | 1012.4 |
| 20260510150012 | 64 | 153 | 0.0 | 3.0 | 0.00 | 0.00 | 0.00 | 29 | 1012.4 |
| 20260510144523 | 63 | 155 | 0.0 | 0.0 | 0.00 | 0.00 | 0.00 | 32 | 1012.5 |
| 20260510143005 | 61 | 155 | 0.0 | 2.0 | 0.00 | 0.00 | 0.00 | 34 | 1012.4 |
| 20260510141505 | 59 | 110 | 0.0 | 0.0 | 0.00 | 0.00 | 0.00 | 37 | 1012.3 |
| 20260510140004 | 56 | 110 | 0.0 | 0.0 | 0.00 | 0.00 | 0.00 | 36 | 1012.2 |
| 20260510134503 | 53 | 110 | 0.0 | 0.0 | 0.00 | 0.00 | 0.00 | 41 | 1012.1 |
| 20260510133003 | 54 | 110 | 0.0 | 0.0 | 0.00 | 0.00 | 0.00 | 37 | 1011.9 |
| 20260510131501 | 54 | 110 | 0.0 | 0.0 | 0.00 | 0.00 | 0.00 | 37 | 1012.0 |
| 20260510130101 | 54 | 110 | 0.0 | 0.0 | 0.00 | 0.00 | 0.00 | 36 | 1012.0 |
| 20260510124601 | 55 | 103 | 0.0 | 2.0 | 0.00 | 0.00 | 0.00 | 36 | 1012.0 |
| 20260510123102 | 55 | 6 | 0.0 | 0.0 | 0.00 | 0.00 | 0.00 | 35 | 1012.1 |
| 20260510121600 | 54 | 6 | 0.0 | 0.0 | 0.00 | 0.00 | 0.00 | 35 | 1012.1 |
| 20260510120057 | 54 | 6 | 0.0 | 0.0 | 0.00 | 0.00 | 0.00 | 34 | 1012.1 |
| 20260510114556 | 57 | 6 | 0.0 | 0.0 | 0.00 | 0.00 | 0.00 | 34 | 1012.1 |
| 20260510113057 | 56 | 7 | 0.0 | 0.0 | 0.00 | 0.00 | 0.00 | 33 | 1012.1 |
| 20260510111554 | 54 | 6 | 0.0 | 0.0 | 0.00 | 0.00 | 0.00 | 35 | 1012.1 |
| 20260510110053 | 53 | 25 | 0.0 | 2.0 | 0.00 | 0.00 | 0.00 | 42 | 1012.1 |
| 20260510104559 | 56 | 345 | 0.0 | 2.0 | 0.00 | 0.00 | 0.00 | 37 | 1012.1 |
| 20260510103051 | 54 | 32 | 0.0 | 3.0 | 0.00 | 0.00 | 0.00 | 39 | 1012.1 |
| 20260510101553 | 54 | 25 | 1.0 | 3.0 | 0.00 | 0.00 | 0.00 | 39 | 1012.4 |
| 20260510100054 | 55 | 15 | 1.0 | 3.0 | 0.00 | 0.00 | 0.00 | 37 | 1012.2 |
| 20260510094553 | 54 | 27 | 0.0 | 2.0 | 0.00 | 0.00 | 0.00 | 37 | 1012.3 |
| 20260510093048 | 57 | 20 | 2.0 | 3.0 | 0.00 | 0.00 | 0.00 | 34 | 1012.2 |
| 20260510091542 | 60 | 6 | 0.0 | 1.0 | 0.00 | 0.00 | 0.00 | 30 | 1012.3 |
| 20260510090042 | 59 | 6 | 0.0 | 0.0 | 0.00 | 0.00 | 0.00 | 31 | 1012.2 |
| 20260510084556 | 57 | 6 | 0.0 | 2.0 | 0.00 | 0.00 | 0.00 | 36 | 1012.3 |
| 20260510083049 | 56 | 15 | 0.0 | 3.0 | 0.00 | 0.00 | 0.00 | 35 | 1012.1 |
| 20260510081541 | 56 | 338 | 0.0 | 4.0 | 0.00 | 0.00 | 0.00 | 37 | 1012.3 |
| 20260510080035 | 56 | 1 | 2.0 | 4.0 | 0.00 | 0.00 | 0.00 | 36 | 1012.3 |
| 20260510074536 | 57 | 354 | 1.0 | 4.0 | 0.00 | 0.00 | 0.00 | 35 | 1012.4 |
| 20260510073045 | 58 | 14 | 2.0 | 4.0 | 0.00 | 0.00 | 0.00 | 35 | 1012.4 |
| 20260510071530 | 59 | 20 | 2.0 | 4.0 | 0.00 | 0.00 | 0.00 | 33 | 1012.5 |
| 20260510070026 | 61 | 11 | 1.0 | 3.0 | 0.00 | 0.00 | 0.00 | 30 | 1012.3 |
| 20260510064524 | 61 | 321 | 0.0 | 2.0 | 0.00 | 0.00 | 0.00 | 28 | 1012.4 |
| 20260510063024 | 61 | 1 | 1.0 | 3.0 | 0.00 | 0.00 | 0.00 | 30 | 1012.4 |
| 20260510061523 | 62 | 347 | 2.0 | 3.0 | 0.00 | 0.00 | 0.00 | 26 | 1012.4 |
| 20260510060034 | 64 | 360 | 2.0 | 3.0 | 0.00 | 0.00 | 0.00 | 24 | 1012.3 |
| 20260510054522 | 64 | 353 | 1.0 | 3.0 | 0.00 | 0.00 | 0.00 | 23 | 1012.2 |
| 20260510053021 | 64 | 349 | 0.0 | 3.0 | 0.00 | 0.00 | 0.00 | 23 | 1012.3 |
| 20260510051521 | 64 | 349 | 2.0 | 4.0 | 0.00 | 0.00 | 0.00 | 24 | 1012.3 |
| 20260510050021 | 65 | 311 | 3.0 | 5.0 | 0.00 | 0.00 | 0.00 | 24 | 1012.1 |
| 20260510044520 | 64 | 317 | 2.0 | 5.0 | 0.00 | 0.00 | 0.00 | 26 | 1012.0 |
| 20260510043020 | 65 | 317 | 1.0 | 6.0 | 0.00 | 0.00 | 0.00 | 26 | 1012.0 |
| 20260510041522 | 67 | 306 | 1.0 | 6.0 | 0.00 | 0.00 | 0.00 | 24 | 1011.8 |
| 20260510040019 | 67 | 352 | 0.0 | 3.0 | 0.00 | 0.00 | 0.00 | 23 | 1011.5 |
| 20260510034518 | 69 | 12 | 0.0 | 3.0 | 0.00 | 0.00 | 0.00 | 22 | 1011.3 |
| 20260510033017 | 71 | 18 | 1.0 | 7.0 | 0.00 | 0.00 | 0.00 | 20 | 1011.1 |
| 20260510031517 | 71 | 34 | 1.0 | 6.0 | 0.00 | 0.00 | 0.00 | 20 | 1010.8 |
| 20260510030016 | 72 | 34 | 1.0 | 8.0 | 0.00 | 0.00 | 0.00 | 20 | 1010.7 |
| 20260510024520 | 74 | 30 | 1.0 | 6.0 | 0.00 | 0.00 | 0.00 | 20 | 1010.5 |
| 20260510023015 | 76 | 34 | 2.0 | 6.0 | 0.00 | 0.00 | 0.00 | 19 | 1010.5 |
| 20260510021515 | 77 | 38 | 1.0 | 6.0 | 0.00 | 0.00 | 0.00 | 18 | 1010.4 |
| 20260510020013 | 79 | 33 | 3.0 | 5.0 | 0.00 | 0.00 | 0.00 | 15 | 1010.3 |
| 20260510014513 | 79 | 167 | 0.0 | 5.0 | 0.00 | 0.00 | 0.00 | 15 | 1010.5 |
| 20260510013011 | 81 | 112 | 0.0 | 3.0 | 0.00 | 0.00 | 0.00 | 12 | 1010.7 |
| 20260510011510 | 82 | 79 | 0.0 | 2.0 | 0.00 | 0.00 | 0.00 | 12 | 1010.8 |
| 20260510010009 | 81 | 114 | 0.0 | 7.0 | 0.00 | 0.00 | 0.00 | 13 | 1010.9 |
| 20260510004508 | 81 | 195 | 1.0 | 7.0 | 0.00 | 0.00 | 0.00 | 13 | 1010.8 |
| 20260510003009 | 82 | 85 | 1.0 | 5.0 | 0.00 | 0.00 | 0.00 | 14 | 1010.8 |
| 20260510001507 | 81 | 112 | 2.0 | 8.0 | 0.00 | 0.00 | 0.00 | 13 | 1010.9 |
| 20260510000006 | 82 | 175 | 0.0 | 5.0 | 0.00 | 0.00 | 0.00 | 15 | 1011.0 |
| 20260509234503 | 81 | 79 | 3.0 | 7.0 | 0.00 | 0.00 | 0.00 | 14 | 1010.9 |
| 20260509233002 | 80 | 70 | 2.0 | 7.0 | 0.00 | 0.00 | 0.00 | 14 | 1010.9 |
| 20260509231603 | 80 | 117 | 3.0 | 9.0 | 0.00 | 0.00 | 0.00 | 16 | 1011.1 |
| 20260509230057 | 82 | 18 | 3.0 | 11.0 | 0.00 | 0.00 | 0.00 | 16 | 1011.1 |
| 20260509224553 | 81 | 124 | 2.0 | 9.0 | 0.00 | 0.00 | 0.00 | 18 | 1011.4 |
| 20260509223052 | 80 | 295 | 1.0 | 6.0 | 0.00 | 0.00 | 0.00 | 17 | 1011.7 |
| 20260509221548 | 80 | 164 | 0.0 | 6.0 | 0.00 | 0.00 | 0.00 | 19 | 1012.2 |
| 20260509220052 | 79 | 124 | 2.0 | 13.0 | 0.00 | 0.00 | 0.00 | 20 | 1012.2 |
| 20260509214546 | 80 | 166 | 4.0 | 10.0 | 0.00 | 0.00 | 0.00 | 17 | 1012.3 |
| 20260509213044 | 80 | 81 | 2.0 | 9.0 | 0.00 | 0.00 | 0.00 | 18 | 1012.4 |
| 20260509211546 | 77 | 77 | 1.0 | 8.0 | 0.00 | 0.00 | 0.00 | 20 | 1012.4 |
| 20260509210041 | 77 | 63 | 1.0 | 8.0 | 0.00 | 0.00 | 0.00 | 18 | 1012.6 |
| 20260509204538 | 77 | 20 | 2.0 | 12.0 | 0.00 | 0.00 | 0.00 | 21 | 1013.0 |
| 20260509203036 | 77 | 141 | 1.0 | 6.0 | 0.00 | 0.00 | 0.00 | 21 | 1013.1 |
| 20260509201534 | 76 | 153 | 6.0 | 17.0 | 0.00 | 0.00 | 0.00 | 21 | 1013.1 |
| 20260509200037 | 77 | 147 | 2.0 | 9.0 | 0.00 | 0.00 | 0.00 | 23 | 1013.4 |
| 20260509194531 | 76 | 65 | 1.0 | 6.0 | 0.00 | 0.00 | 0.00 | 22 | 1013.7 |
| 20260509193030 | 74 | 225 | 1.0 | 11.0 | 0.00 | 0.00 | 0.00 | 24 | 1013.9 |
| 20260509191529 | 74 | 86 | 5.0 | 11.0 | 0.00 | 0.00 | 0.00 | 23 | 1014.0 |
| 20260509190029 | 75 | 90 | 3.0 | 10.0 | 0.00 | 0.00 | 0.00 | 21 | 1014.1 |
| 20260509184536 | 75 | 115 | 2.0 | 8.0 | 0.00 | 0.00 | 0.00 | 23 | 1014.2 |
| 20260509183023 | 72 | 143 | 1.0 | 10.0 | 0.00 | 0.00 | 0.00 | 27 | 1014.4 |
| 20260509181522 | 72 | 91 | 0.0 | 7.0 | 0.00 | 0.00 | 0.00 | 28 | 1014.7 |
| 20260509180022 | 71 | 73 | 1.0 | 9.0 | 0.00 | 0.00 | 0.00 | 28 | 1014.7 |
| 20260509174519 | 70 | 108 | 1.0 | 11.0 | 0.00 | 0.00 | 0.00 | 30 | 1014.9 |
| 20260509173018 | 70 | 74 | 2.0 | 9.0 | 0.00 | 0.00 | 0.00 | 29 | 1014.8 |
| 20260509171514 | 69 | 131 | 0.0 | 5.0 | 0.00 | 0.00 | 0.00 | 31 | 1014.9 |
| 20260509170012 | 68 | 239 | 0.0 | 5.0 | 0.00 | 0.00 | 0.00 | 32 | 1015.1 |